www.pogodaiklimat.ru

Погода и климат >> Архив погоды >> ОАЭ >> Фуджейра


ПОГОДА в Фуджейре

  • Прогноз погоды в Фуджейре
  • Монитор погоды в Фуджейре

АРХИВ ПОГОДЫ в Фуджейре

Время (UTC), дата Ветер
(напр.,м/с)
 
Видим.   Явления Облачность Т
(С)
Тd
(С)
f
(%)
Тe
(С)
Тes
(С)
Комфортность P
(гПа)
Po
(гПа)
Тmin
(С)
Tmax
(С)
R
(мм)
R24
(мм)
S
(см)
09 19.03 СЗ 11 8000 м пыль ясно +26.9 +6.6 27 +26 +27 жарко 1013.4 1010.2
12 19.03 З 12 5000 м пыльный позёмок ясно +27.0 +6.1 26 +26 +26 жарко 1011.2 1008.0
15 19.03 СЗ 9 10 км ясно +22.6 +8.4 40 +24 +24 комфорт 1012.6 1007.2
18 19.03 З 8 8000 м пыль ясно +20.3 +10.4 53 +21 +21 комфорт 1014.3 1011.0 +28.3
21 19.03 СЗ 5 8000 м пыль ясно +19.2 +11.0 59 +20 +20 1013.0 1009.7
00 20.03 СЗ 6 8000 м пыль ясно +18.5 +11.1 62 +18 +18 1012.1 1008.8
03 20.03 СЗ 9 8000 м пыль 1/1 450 м
[Sc]
+18.4 +11.2 63 +18 +18 1012.9 1009.6
06 20.03 штиль 0 10 км ясно +22.3 +11.5 50 +25 +26 комфорт 1014.2 1008.8 +18.1
09 20.03 СЗ 7 10 км 1/0
[Ci fib]
+26.8 +9.3 33 +27 +33 жарко 1012.4 1009.2
12 20.03 В 6 10 км 1/0
[Ci fib]
+25.3 +13.1 47 +27 +30 жарко 1010.2 1007.0
15 20.03 В 2 10 км 1/0
[Ci fib]
+23.1 +14.1 57 +27 +27 душно 1011.5 1008.2
18 20.03 СЗ 6 10 км ясно +23.0 +11.7 49 +25 +25 комфорт 1012.5 1009.2 +28.6
21 20.03 СЗ 6 10 км ясно +21.8 +10.3 48 +24 +24 комфорт 1012.1 1008.8
00 21.03 СЗ 2 10 км ясно +21.0 +6.8 40 +23 +23 комфорт 1010.8 1007.5
03 21.03 ЮЗ 1 10 км 4/0
[Ci fib]
+20.5 +4.1 34 +22 +23 комфорт 1012.9 1009.6
06 21.03 ЮВ 4 10 км 4/0
[Ci fib]
+24.3 +14.9 56 +27 +35 жарко 1014.5 1011.2 +20.2
09 21.03 В 4 10 км 5/0
[Ac trans]
+25.2 +14.0 50 +28 +36 жарко 1013.7 1008.3
12 21.03 В 3 8000 м мгла 4/0
[Ac trans]
+24.7 +15.1 55 +28 +32 душно 1011.5 1008.3
15 21.03 ЮВ 2 8000 м мгла 3/3 750 м
[Sc]
+23.4 +18.0 72 +29 +29 душно 1013.1 1007.7
18 21.03 Ю 2 8000 м мгла 3/3 750 м
[Sc]
+23.0 +18.7 77 +29 +29 очень
душно
1014.7 1011.4 +26.2
21 21.03 ЮВ 2 8000 м мгла 1/1 900 м
[Sc]
+22.8 +19.5 82 +29 +29 очень
душно
1013.4 1010.1
00 22.03 В 2 6000 м в посл. час морось 8/3 480 м
[St Ac trans]
+22.6 +20.1 86 +29 +29 очень
душно
1013.3 1010.0 0.3
03 22.03 СЗ 4 4000 м слаб. дождь 10/4 540 м
[Sc As op]
+22.5 +20.6 89 +29 +29 очень
душно
1016.3 1013.0
06 22.03 В 2 8000 м мгла {дождь} 6/1 1200 м
[Sc Ac trans]
+26.8 +14.9 48 +29 +37 жарко 1016.5 1013.3 +21.9 0.2
09 22.03 В 5 10 км 9/6 1200 м
[Sc Ac trans]
+25.5 +19.3 69 +31 +33 очень
душно
1015.8 1010.5
12 22.03 В 4 10 км 6/3 1200 м
[Sc Cs]
+25.2 +17.1 61 +29 +32 душно 1014.6 1011.4 0.2
15 22.03 СВ 4 7000 м мгла 6/6 450 м
[Cu Sc]
+23.5 +20.7 84 +29 +29 душно 1015.0 1011.7
18 22.03 В 2 7000 м мгла 3/3 600 м
[Sc]
+23.3 +20.3 83 +31 +31 очень
душно
1017.2 1011.8 +29.1 0.2
21 22.03 С 1 7000 м мгла 3/3 750 м
[Sc]
+22.8 +19.8 83 +29 +29 очень
душно
1015.2 1011.9
00 23.03 Ю 3 6000 м мгла ясно +22.1 +19.7 86 +28 +28 душно 1014.0 1010.7
03 23.03 С 3 6000 м мгла 6/4 540 м
[Sc Ac trans]
+22.6 +20.3 87 +29 +30 очень
душно
1016.2 1010.8
06 23.03 СВ 5 5000 м слаб. дождь 9/3 450 м
[Frnb Ac trans]
+23.0 +19.6 81 +30 +32 очень
душно
1016.0 1010.6 +21.9
09 23.03 С 8 8000 м мгла 9/1 450 м
[Sc Ac lent]
+23.8 +17.4 67 +28 +29 душно 1016.7 1013.4
12 23.03 СВ 9 10 км 6/1 750 м
[Sc Ci fib]
+23.8 +14.8 57 +27 +27 жарко 1013.8 1010.5 0.1
15 23.03 С 7 10 км 9/1 900 м
[Sc Ac trans]
+23.0 +14.6 59 +27 +27 душно 1014.0 1010.7
18 23.03 СВ 3 10 км 9/3 1200 м
[Sc Cs]
+23.4 +14.4 57 +27 +27 душно 1014.9 1011.6 +25.0 0.1
21 23.03 С 2 10 км 5/0
[Ci fib]
+22.9 +14.8 60 +27 +27 душно 1013.5 1010.2
00 24.03 З 1 10 км 4/0
[Ci fib]
+21.4 +15.7 70 +25 +25 комфорт 1012.8 1009.5 0.1
03 24.03 ЮЗ 2 5000 м дождь 8/8 540 м
[Cu Sc]
+22.3 +17.1 72 +27 +27 душно 1012.7 1009.4
06 24.03 ЮВ 5 10 км 1/0
[Ci fib]
+25.3 +17.6 62 +29 +37 душно 1014.0 1010.8 +21.3 0.3
09 24.03 ЮВ 7 10 км 8/1 600 м
[Sc Ci fib]
+26.3 +18.5 62 +31 +35 душно 1012.2 1009.0
12 24.03 СВ 5 8000 м мгла 8/4 750 м
[Sc Ac trans]
+24.4 +19.2 73 +29 +31 душно 1011.4 1008.2 0.3
15 24.03 В 2 8000 м мгла 5/3 750 м
[Sc Ac trans]
+23.4 +18.1 72 +29 +29 душно 1012.7 1007.3
18 24.03 СВ 2 10 км 3/3 750 м
[Sc]
+23.0 +18.9 78 +29 +29 очень
душно
1013.8 1010.5 +27.0 0.3
21 24.03 СВ 3 8000 м мгла 6/3 750 м
[Sc Ac trans]
+22.8 +18.9 79 +29 +29 очень
душно
1013.5 1010.2
00 25.03 СВ 2 8000 м мгла 6/3 750 м
[Sc Ac trans]
+22.5 +18.9 80 +28 +28 душно 1012.5 1009.2 0.3
03 25.03 СВ 3 8000 м мгла 10/4 750 м
[Sc As trans]
+23.3 +19.7 80 +30 +30 очень
душно
1013.6 1010.3
06 25.03 СВ 5 6000 м 8/3 540 м
[Sc Ac trans]
+24.8 +21.1 80 +31 +34 очень
душно
1014.9 1009.6 +22.4
09 25.03 СВ 4 7000 м мгла 9/3 450 м
[Sc Ac trans]
+24.6 +20.7 79 +31 +35 очень
душно
1014.5 1011.2
12 25.03 В 5 6000 м мгла 10/6 420 м
[Cu Sc As trans]
+24.2 +20.4 79 +30 +30 очень
душно
1012.4 1009.1
15 25.03 ЮВ 3 6000 м мгла 10/6 420 м
[Cu Sc As trans]
+23.6 +21.3 87 +30 +30 очень
душно
1012.9 1009.6
18 25.03 В 3 7000 м мгла 6/4 750 м
[Sc As trans]
+23.5 +21.8 90 +30 +30 очень
душно
1013.2 1007.8 +25.2
21 25.03 СВ 2 6000 м мгла 6/4 750 м
[Sc As trans]
+23.4 +21.6 90 +32 +32 очень
душно
1012.7 1009.4
00 26.03 СВ 3 4000 м дымка 5/5 300 м
[St]
+23.4 +22.0 92 +32 +32 очень
душно
1011.3 1008.0 0.9
03 26.03 штиль 0 4000 м дымка 6/6 600 м
[Cu Sc]
+23.4 +21.7 90 +32 +32 очень
душно
1014.1 1010.8
06 26.03 СВ 4 7000 м мгла 8/4 600 м
[Sc Ac trans]
+25.2 +21.7 81 +32 +36 очень
душно
1015.3 1012.0 +23.3

 

Местоположение метеостанции Фуджейра (ОАЭ): широта 25.10 долгота 56.33 высота над уровнем моря 28 м.

В архиве по умолчанию представлена погода в Фуджейре за последнюю неделю. Архивные данные за месяц целиком и за предыдущие месяцы, начиная с января 2011 года, Вы можете получить, выбрав интересующий диапазон дат из раскрывающегося списка и нажав кнопку "Ввод!".


*Определитесь, кто Вы:
робот инопланетянин человек

Внимание! Время в таблицах - всемирное. Для получения местного времени необходимо прибавить поправку, которая равна 4 ч.

Смотрите также архив погоды в соседних городах и на ближайших метеорологических станциях:

Погода в Дибе (Оман) (58 км)
Погода в Рай-эль-Хайма аэропорту (ОАЭ) (70 км)
Погода в Сухаре (Оман) (76 км)
Погода в Шардже (ОАЭ) (85 км)
Погода в Дубае (ОАЭ) (102 км)
Погода в Эль-Бурайми (Оман) (112 км)
Погода в Эль-Айне (ОАЭ) (118 км)
Погода в Эль-Хасаб аэропорту (Оман) (119 км)
Погода в Аль-Мактум аэропорту (ОАЭ) (120 км)
Погода в Эль-Хасабе (Оман) (124 км)

Пояснения к столбцам:

Ветер - указаны скорость ветра в м/с - средняя за 10 мин, порывы в срок и между сроками (в фигурных скобках) и направление, откуда дует ветер: С - северный, СВ - северо-восточный, В - восточный, ЮВ - юго-восточный, Ю - южный, ЮЗ - юго-западный, З - западный, СЗ - северо-западный.
Видимость - горизонтальная дальность видимости в метрах или километрах. При видимости от 1 до 10 км при отсутствии осадков обычно наблюдается дымка, при ухудшении видимости до 1 км и менее - туман. В сухую погоду видимость может ухудшаться дымом, пылью или мглою.
Явления - указаны атмосферные явления, наблюдавшиеся в срок или в последний час перед сроком; фигурными скобками обозначены явления, наблюдавшиеся между сроками (за 1-3 часа до срока); квадратными скобками обозначены град или гололедные отложения с указанием их диаметра в мм.
Облачность - указаны через наклонную черту общая и нижняя облачность в баллах и высота нижней границы облаков в метрах; квадратными скобками обозначены формы облаков: Ci - перистые, Cs - перисто-слоистые, Cc - перисто-кучевые, Ac - высококучевые, As - высокослоистые, Sc - слоисто-кучевые, Ns - слоисто-дождевые, Cu - кучевые, Cb - кучево-дождевые. Подробнее классификацию облаков см. в Атласе облаков (PDF).
T - Температура воздуха - температура, измеренная на высоте 2 м над землей.
Td - Температура точки росы - температура, при понижении до которой содержащийся в воздухе водяной пар достигнет насыщения.
f - Относительная влажность воздуха - влажноcть воздуха, измеренная на высоте 2 м над землей.
Te - Эффективная температура - температура, которую ощущает одетый по сезону человек в тени. Характеристика душности погоды. При расчете учитывается влияние влажности воздуха и скорости ветра на теплоощущения человека.
Tes - Эффективная температура на солнце - температура, которую ощущает человек, с поправкой на солнечный нагрев. Характеристика знойности погоды. Зависит от высоты солнца над горизонтом, облачности и скорости ветра. Ночью, в пасмурную погоду, а также при ветре 12 м/с и более поправка равна нулю.
P - Атмосферное давление - приведенное к уровню моря атмосферное давление.
Po - Атмосферное давление - измеренное на уровне метеостанции атмосферное давление.
Tmin - Минимальная температура - минимум температуры воздуха на высоте 2 м над землей.
Tmax - Максимальная температура - максимум температуры воздуха на высоте 2 м над землей.
R - Количество осадков - Количество выпавших осадков за период времени, мм. При наведении курсора мыши на число - период времени, за который выпало указанное количество осадков.
R24 - Количество осадков - Количество выпавших осадков за 24 часа, мм.
S - Снежный покров - Высота снежного покрова, см. При наведении курсора мыши на число - состояние снежного покрова и степень покрытия местности в баллах.